User: anonymous   Login
Location: Unspecified
(0.0000°N, 0.0000°E)
Time: 23:04:45
(UTC+01:00)
Language:

Iridium 33 - Orbit

View from above orbital plane
View from above orbital plane
View from above satellite
View from above satellite

Ground track
Ground track

The orbit data is extracted from the following two-line orbital elements,

1 24946U 97051C   14356.45793403  .00000684  00000-0  24149-3 0  2074
2 24946 086.3891 306.5725 0006323 332.6535 164.7750 14.33271649904004
Epoch (UTC): 22 December 2014 10:59:25
Eccentricity: 0.0006323
inclination: 86.3891°
perigee height: 776 km
apogee height: 785 km
right ascension of ascending node: 306.5725°
argument of perigee: 332.6535°
revolutions per day: 14.33271649
mean anomaly at epoch: 164.7750°
orbit number at epoch: 90400

The dashed part of the orbit path shows where the satellite is in the earth's shadow,  

DLR